STARLINK-32727, 62828

Orbit data source: Space-Track

STARLINK-32727, 62828 is a payload satellite owned by SpaceX/Seattle (US) in LEO that was launched on Fri, 24 Jan 2025 UTC via an FALCON 9 launch vehicle from the Air Force Western Test Range (AFWTR). Payload-class satellites include a variety of spacecraft equipped with specific instruments for various scientific and technological missions. These include communications satellites like Starlink; space stations such as the ISS; scientific satellites like the Hubble; Earth observation satellites from companies like Planet Labs, Umbra, and HawkEye 360; GPS; miniature CubeSats for education and research; and military/defense satellites.

Loading next visibility...
Identifier
62828, 2025-018Y
Orbit
LEO
Country
Flag of USUS
Related business
Manufacturer
SpaceX/Seattle
Mission
Operational Commercial Communications
Bus & Motor
STARLINK V2M, Unknown motor
Mass
730 kg wet, ~700 kg dry
Launch date (UTC)
2025-01-24 (1 year ago)
Launch vehicle
FALCON 9
Launch site
Air Force Western Test Range (AFWTR)
Object type
Payload
Rocket body
Debris
Shape & HBR
Box + 2 Pan, 17.7 m
Radar Cross Section
33.884 m², Large (>1 m²)

Expand to show TLE details & history
Last TLE update: 18 hours ago

TLE from 18 hours ago
0 STARLINK-32727
1 62828U 25018Y   26033.58570735  .00023410  00000-0  80022-3 0  9991
2 62828  53.1588 109.8227 0001278  76.4739 283.6404 15.30192090 58786
Epoch: 2026-02-02T14:03Z
TLE epoch observation values (Epoch: 2026-02-02T14:03:25.115Z)
Latitude
-0°
Longitude
126.18918°
Altitude
475.932 km
Speed
7.629 km/s
True Right ascension
07h 19m 17s
True Declination
0° 00' 00"
Sunlit
Object was in full shadow at epoch
Visualization orbit readout
Latitude
Unknown
Longitude
Unknown
Altitude
Unknown
Speed
Unknown
Apparent Right ascension
Unknown
Apparent Declination
Unknown
Sunlit
N/A
Visualization observer readout
Local Sidereal Time
10:18:10
Azimuth
Unknown
Elevation
Unknown
Doppler factor
Unknown
Orbital elements
Apogee altitude
476.371 km
Perigee altitude
474.619 km
Semi-major axis
6,853.632 km
Eccentricity
0.00013
Inclination
53.1588°
RAAN
109.8227°
Arg. of periapsis
76.4739°
True anomaly
283.62617°
Mean anomaly
283.6404°
Eccentric anomaly
283.63328°
Mean motion
3.82527 °/min
Orbital period
94.11 mins
BSTAR
0.00080022
Loading maneuver chart data...
Computing Atmospheric mass density...
Loading historical data...
Loading historical data...
Loading historical data...
Loading historical data...
Loading historical data...
Loading historical data...
Loading historical data...

Documentation

Showing up to 5 results
|